contact:dominique.lefevre@mio.osupytheas.fr, maurice.libes@osupytheas.fr, didier.mallarino@osupytheas.fr
Project:EMSO http://www.emso-fr.org/EMSO-France
Depth: 2436.0 m
Title:EMSO Ligure Ouest : Data MII capteur CSTAR
DateTime,Latitude,Longitude,Instrument_Serial,Reference_Counts,Signal_Counts,Corrected_Signal_raw_counts,Calculated_Beam_c_inverse_meters,Internal_thermistor_counts
DateTime,Latitude,Longitude,Instrument_Serial,Reference_Counts,Signal_Counts,Corrected_Signal_raw_counts,Calculated_Beam_c_inverse_meters,Internal_thermistor_counts
2019-12-18T00:01:33,42.805,6.029,CST-1368DR,7139,10002,15278,0.088,551
2019-12-18T00:04:34,42.805,6.029,CST-1368DR,7139,10002,15278,0.088,551
2019-12-18T00:07:36,42.805,6.029,CST-1368DR,7139,10001,15277,0.088,551
2019-12-18T00:10:38,42.805,6.029,CST-1368DR,7139,10001,15276,0.088,551
2019-12-18T00:13:39,42.805,6.029,CST-1368DR,7139,10002,15278,0.088,551
2019-12-18T00:16:41,42.805,6.029,CST-1368DR,7139,10002,15278,0.088,551
2019-12-18T00:19:42,42.805,6.029,CST-1368DR,7139,10001,15276,0.088,551
2019-12-18T00:22:44,42.805,6.029,CST-1368DR,7139,10000,15276,0.088,551
2019-12-18T00:25:46,42.805,6.029,CST-1368DR,7139,10002,15279,0.087,551
2019-12-18T00:28:47,42.805,6.029,CST-1368DR,7139,10002,15278,0.088,551
2019-12-18T00:31:49,42.805,6.029,CST-1368DR,7139,10002,15278,0.088,551
2019-12-18T00:34:51,42.805,6.029,CST-1368DR,7139,10002,15278,0.088,551
2019-12-18T00:37:52,42.805,6.029,CST-1368DR,7139,9999,15274,0.089,551
2019-12-18T00:40:54,42.805,6.029,CST-1368DR,7139,9998,15272,0.089,551
2019-12-18T00:43:56,42.805,6.029,CST-1368DR,7139,9999,15273,0.089,550
2019-12-18T00:46:57,42.805,6.029,CST-1368DR,7139,10000,15275,0.088,551
2019-12-18T00:49:59,42.805,6.029,CST-1368DR,7139,10000,15276,0.088,551
2019-12-18T00:53:00,42.805,6.029,CST-1368DR,7139,10001,15276,0.088,551
2019-12-18T00:56:02,42.805,6.029,CST-1368DR,7139,10000,15275,0.088,551
2019-12-18T00:59:04,42.805,6.029,CST-1368DR,7139,9999,15274,0.089,551
2019-12-18T01:02:05,42.805,6.029,CST-1368DR,7139,9999,15274,0.089,551
2019-12-18T01:05:07,42.805,6.029,CST-1368DR,7139,10001,15276,0.088,551
2019-12-18T01:08:09,42.805,6.029,CST-1368DR,7139,10000,15275,0.088,550
2019-12-18T01:11:10,42.805,6.029,CST-1368DR,7139,10000,15275,0.088,551
2019-12-18T01:14:12,42.805,6.029,CST-1368DR,7139,9999,15274,0.089,551
2019-12-18T01:17:13,42.805,6.029,CST-1368DR,7139,9999,15273,0.089,551
2019-12-18T01:20:15,42.805,6.029,CST-1368DR,7139,9999,15273,0.089,551
2019-12-18T01:23:17,42.805,6.029,CST-1368DR,7139,9999,15273,0.089,551
2019-12-18T01:26:18,42.805,6.029,CST-1368DR,7139,9998,15272,0.089,551
2019-12-18T01:29:20,42.805,6.029,CST-1368DR,7139,9999,15273,0.089,551
2019-12-18T01:32:22,42.805,6.029,CST-1368DR,7139,9997,15271,0.089,551
2019-12-18T01:35:23,42.805,6.029,CST-1368DR,7139,9998,15273,0.089,551
2019-12-18T01:38:25,42.805,6.029,CST-1368DR,7139,9998,15271,0.089,551
2019-12-18T01:41:27,42.805,6.029,CST-1368DR,7139,9999,15274,0.089,551
2019-12-18T01:44:28,42.805,6.029,CST-1368DR,7139,9999,15274,0.089,551
2019-12-18T01:47:30,42.805,6.029,CST-1368DR,7138,9998,15275,0.088,551
2019-12-18T01:50:31,42.805,6.029,CST-1368DR,7139,9998,15273,0.089,551
2019-12-18T01:53:33,42.805,6.029,CST-1368DR,7138,9995,15270,0.090,551
2019-12-18T01:56:35,42.805,6.029,CST-1368DR,7139,9998,15272,0.089,551
2019-12-18T01:59:36,42.805,6.029,CST-1368DR,7138,9998,15274,0.089,551
2019-12-18T02:02:38,42.805,6.029,CST-1368DR,7138,9999,15275,0.088,551
2019-12-18T02:05:40,42.805,6.029,CST-1368DR,7138,9998,15275,0.088,551
2019-12-18T02:08:41,42.805,6.029,CST-1368DR,7139,9998,15273,0.089,551
2019-12-18T02:11:43,42.805,6.029,CST-1368DR,7138,9995,15269,0.090,551
2019-12-18T02:14:44,42.805,6.029,CST-1368DR,7139,9997,15270,0.090,551
2019-12-18T02:17:46,42.805,6.029,CST-1368DR,7138,9998,15274,0.089,551
2019-12-18T02:20:48,42.805,6.029,CST-1368DR,7138,9998,15274,0.089,551
2019-12-18T02:23:49,42.805,6.029,CST-1368DR,7138,9997,15272,0.089,551
2019-12-18T02:26:51,42.805,6.029,CST-1368DR,7138,9998,15274,0.089,551
2019-12-18T02:29:54,42.805,6.029,CST-1368DR,7138,9998,15275,0.088,551
2019-12-18T02:32:55,42.805,6.029,CST-1368DR,7138,9999,15275,0.088,551
2019-12-18T02:35:57,42.805,6.029,CST-1368DR,7138,9998,15273,0.089,551
2019-12-18T02:38:58,42.805,6.029,CST-1368DR,7138,9999,15275,0.088,551
2019-12-18T02:42:00,42.805,6.029,CST-1368DR,7138,9998,15273,0.089,551
2019-12-18T02:45:02,42.805,6.029,CST-1368DR,7138,9998,15275,0.088,550
2019-12-18T02:48:03,42.805,6.029,CST-1368DR,7138,9996,15271,0.089,551
2019-12-18T02:51:05,42.805,6.029,CST-1368DR,7138,9999,15276,0.088,551
2019-12-18T02:54:07,42.805,6.029,CST-1368DR,7138,9998,15273,0.089,551
2019-12-18T02:57:08,42.805,6.029,CST-1368DR,7138,9999,15275,0.088,551
2019-12-18T03:00:10,42.805,6.029,CST-1368DR,7138,10000,15278,0.088,551
2019-12-18T03:03:12,42.805,6.029,CST-1368DR,7138,10001,15278,0.088,551
2019-12-18T03:06:13,42.805,6.029,CST-1368DR,7138,9999,15276,0.088,551
2019-12-18T03:09:15,42.805,6.029,CST-1368DR,7138,10000,15278,0.088,551
2019-12-18T03:12:17,42.805,6.029,CST-1368DR,7138,10001,15278,0.088,551
2019-12-18T03:15:18,42.805,6.029,CST-1368DR,7138,9998,15275,0.088,551
2019-12-18T03:18:20,42.805,6.029,CST-1368DR,7138,10001,15278,0.088,551
2019-12-18T03:21:21,42.805,6.029,CST-1368DR,7138,10001,15278,0.088,551
2019-12-18T03:24:23,42.805,6.029,CST-1368DR,7138,9999,15276,0.088,551
2019-12-18T03:27:25,42.805,6.029,CST-1368DR,7138,10001,15278,0.088,551
2019-12-18T03:30:26,42.805,6.029,CST-1368DR,7138,9998,15274,0.089,551
2019-12-18T03:33:28,42.805,6.029,CST-1368DR,7138,10000,15278,0.088,551
2019-12-18T03:36:30,42.805,6.029,CST-1368DR,7138,10001,15279,0.087,551
2019-12-18T03:39:31,42.805,6.029,CST-1368DR,7138,10002,15280,0.087,551
2019-12-18T03:42:33,42.805,6.029,CST-1368DR,7138,10002,15280,0.087,551
2019-12-18T03:45:35,42.805,6.029,CST-1368DR,7138,10002,15281,0.087,551
2019-12-18T03:48:36,42.805,6.029,CST-1368DR,7138,10001,15278,0.088,550
2019-12-18T03:51:38,42.805,6.029,CST-1368DR,7138,10001,15279,0.087,551
2019-12-18T03:54:40,42.805,6.029,CST-1368DR,7138,10002,15280,0.087,551
2019-12-18T03:57:41,42.805,6.029,CST-1368DR,7138,10002,15281,0.087,551
2019-12-18T04:00:43,42.805,6.029,CST-1368DR,7138,10003,15281,0.087,551
2019-12-18T04:03:45,42.805,6.029,CST-1368DR,7138,10001,15278,0.088,551
2019-12-18T04:06:46,42.805,6.029,CST-1368DR,7138,10001,15279,0.087,551
2019-12-18T04:09:48,42.805,6.029,CST-1368DR,7138,10002,15280,0.087,551
2019-12-18T04:12:49,42.805,6.029,CST-1368DR,7138,10002,15281,0.087,551
2019-12-18T04:15:51,42.805,6.029,CST-1368DR,7138,10001,15279,0.087,551
2019-12-18T04:18:53,42.805,6.029,CST-1368DR,7138,10001,15278,0.088,551
2019-12-18T04:21:54,42.805,6.029,CST-1368DR,7138,10002,15281,0.087,551
2019-12-18T04:24:56,42.805,6.029,CST-1368DR,7138,10003,15281,0.087,551
2019-12-18T04:27:58,42.805,6.029,CST-1368DR,7138,10001,15279,0.087,551
2019-12-18T04:30:59,42.805,6.029,CST-1368DR,7138,10002,15280,0.087,551
2019-12-18T04:34:01,42.805,6.029,CST-1368DR,7138,10002,15280,0.087,551
2019-12-18T04:37:03,42.805,6.029,CST-1368DR,7138,10002,15281,0.087,551
2019-12-18T04:40:04,42.805,6.029,CST-1368DR,7138,10003,15282,0.086,551
2019-12-18T04:43:06,42.805,6.029,CST-1368DR,7138,10003,15282,0.086,551
2019-12-18T04:46:08,42.805,6.029,CST-1368DR,7138,10002,15280,0.087,551
2019-12-18T04:49:09,42.805,6.029,CST-1368DR,7137,10001,15280,0.087,551
2019-12-18T04:52:11,42.805,6.029,CST-1368DR,7138,10003,15281,0.087,551
2019-12-18T04:55:13,42.805,6.029,CST-1368DR,7138,10002,15280,0.087,551
2019-12-18T04:58:14,42.805,6.029,CST-1368DR,7138,10002,15280,0.087,551
2019-12-18T05:01:16,42.805,6.029,CST-1368DR,7137,10004,15285,0.086,551
2019-12-18T05:04:18,42.805,6.029,CST-1368DR,7137,10003,15284,0.086,551
2019-12-18T05:07:19,42.805,6.029,CST-1368DR,7137,10002,15283,0.086,551
2019-12-18T05:10:21,42.805,6.029,CST-1368DR,7137,10003,15283,0.086,551
2019-12-18T05:13:23,42.805,6.029,CST-1368DR,7137,10003,15283,0.086,551
2019-12-18T05:16:24,42.805,6.029,CST-1368DR,7137,10003,15284,0.086,551
2019-12-18T05:19:26,42.805,6.029,CST-1368DR,7137,10001,15280,0.087,551
2019-12-18T05:22:27,42.805,6.029,CST-1368DR,7137,10002,15282,0.086,551
2019-12-18T05:25:29,42.805,6.029,CST-1368DR,7137,10002,15282,0.086,551
2019-12-18T05:28:31,42.805,6.029,CST-1368DR,7137,10002,15282,0.086,551
2019-12-18T05:31:32,42.805,6.029,CST-1368DR,7137,10002,15282,0.086,551
2019-12-18T05:34:34,42.805,6.029,CST-1368DR,7137,10003,15283,0.086,551
2019-12-18T05:37:36,42.805,6.029,CST-1368DR,7137,10003,15284,0.086,551
2019-12-18T05:40:37,42.805,6.029,CST-1368DR,7137,10004,15285,0.086,550
2019-12-18T05:43:39,42.805,6.029,CST-1368DR,7137,10003,15284,0.086,551
2019-12-18T05:46:41,42.805,6.029,CST-1368DR,7137,10004,15285,0.086,551
2019-12-18T05:49:42,42.805,6.029,CST-1368DR,7137,10002,15282,0.086,551
2019-12-18T05:52:44,42.805,6.029,CST-1368DR,7137,10004,15285,0.086,551
2019-12-18T05:55:46,42.805,6.029,CST-1368DR,7137,10003,15284,0.086,551
2019-12-18T05:58:47,42.805,6.029,CST-1368DR,7137,10003,15283,0.086,551
2019-12-18T06:01:49,42.805,6.029,CST-1368DR,7137,10003,15284,0.086,551
2019-12-18T06:04:51,42.805,6.029,CST-1368DR,7137,10003,15284,0.086,551
2019-12-18T06:07:52,42.805,6.029,CST-1368DR,7137,10002,15282,0.086,551
2019-12-18T06:10:54,42.805,6.029,CST-1368DR,7137,10001,15281,0.087,551
2019-12-18T06:13:55,42.805,6.029,CST-1368DR,7137,10001,15280,0.087,551
2019-12-18T06:16:57,42.805,6.029,CST-1368DR,7137,10002,15282,0.086,551
2019-12-18T06:19:59,42.805,6.029,CST-1368DR,7137,10000,15279,0.087,551
2019-12-18T06:23:00,42.805,6.029,CST-1368DR,7137,10002,15282,0.086,551
2019-12-18T06:26:02,42.805,6.029,CST-1368DR,7137,10002,15283,0.086,551
2019-12-18T06:29:04,42.805,6.029,CST-1368DR,7137,10002,15283,0.086,551
2019-12-18T06:32:05,42.805,6.029,CST-1368DR,7137,10002,15283,0.086,551
2019-12-18T06:35:07,42.805,6.029,CST-1368DR,7137,10003,15284,0.086,551
2019-12-18T06:38:09,42.805,6.029,CST-1368DR,7137,10002,15283,0.086,551
2019-12-18T06:41:10,42.805,6.029,CST-1368DR,7137,10001,15281,0.087,551
2019-12-18T06:44:12,42.805,6.029,CST-1368DR,7137,10002,15282,0.086,551
2019-12-18T06:47:14,42.805,6.029,CST-1368DR,7137,10002,15282,0.086,551
2019-12-18T06:50:15,42.805,6.029,CST-1368DR,7137,10002,15282,0.086,551
2019-12-18T06:53:17,42.805,6.029,CST-1368DR,7137,10002,15282,0.086,551
2019-12-18T06:56:18,42.805,6.029,CST-1368DR,7137,10002,15282,0.086,551
2019-12-18T06:59:20,42.805,6.029,CST-1368DR,7137,9999,15278,0.088,551
2019-12-18T07:02:22,42.805,6.029,CST-1368DR,7137,10002,15282,0.086,551
2019-12-18T07:05:23,42.805,6.029,CST-1368DR,7137,10001,15281,0.087,551
2019-12-18T07:08:25,42.805,6.029,CST-1368DR,7137,10003,15283,0.086,550
2019-12-18T07:11:27,42.805,6.029,CST-1368DR,7137,10002,15282,0.086,551
2019-12-18T07:14:28,42.805,6.029,CST-1368DR,7137,10002,15282,0.086,551
2019-12-18T07:17:30,42.805,6.029,CST-1368DR,7137,10002,15282,0.086,551
2019-12-18T07:20:31,42.805,6.029,CST-1368DR,7137,10002,15282,0.086,551
2019-12-18T07:23:33,42.805,6.029,CST-1368DR,7137,10000,15279,0.087,551
2019-12-18T07:26:35,42.805,6.029,CST-1368DR,7137,10002,15282,0.086,551
2019-12-18T07:29:37,42.805,6.029,CST-1368DR,7137,10001,15280,0.087,551
2019-12-18T07:32:38,42.805,6.029,CST-1368DR,7137,10001,15281,0.087,551
2019-12-18T07:35:40,42.805,6.029,CST-1368DR,7137,10001,15280,0.087,551
2019-12-18T07:38:42,42.805,6.029,CST-1368DR,7137,10002,15282,0.086,551
2019-12-18T07:41:43,42.805,6.029,CST-1368DR,7137,10002,15282,0.086,550
2019-12-18T07:44:45,42.805,6.029,CST-1368DR,7137,10001,15281,0.087,551
2019-12-18T07:47:46,42.805,6.029,CST-1368DR,7137,10002,15282,0.086,551
2019-12-18T07:50:48,42.805,6.029,CST-1368DR,7137,10001,15281,0.087,551
2019-12-18T07:53:50,42.805,6.029,CST-1368DR,7137,10002,15282,0.086,551
2019-12-18T07:56:51,42.805,6.029,CST-1368DR,7137,10002,15282,0.086,551
2019-12-18T07:59:54,42.805,6.029,CST-1368DR,7137,10002,15282,0.086,551
2019-12-18T08:02:55,42.805,6.029,CST-1368DR,7137,10002,15282,0.086,551
2019-12-18T08:05:57,42.805,6.029,CST-1368DR,7137,10002,15282,0.086,551
2019-12-18T08:08:59,42.805,6.029,CST-1368DR,7137,10002,15282,0.086,551
2019-12-18T08:12:00,42.805,6.029,CST-1368DR,7137,10001,15281,0.087,551
2019-12-18T08:15:02,42.805,6.029,CST-1368DR,7137,10002,15283,0.086,551
2019-12-18T08:18:03,42.805,6.029,CST-1368DR,7137,10003,15283,0.086,551
2019-12-18T08:21:05,42.805,6.029,CST-1368DR,7137,10002,15283,0.086,551
2019-12-18T08:24:07,42.805,6.029,CST-1368DR,7137,10002,15282,0.086,551
2019-12-18T08:27:08,42.805,6.029,CST-1368DR,7137,10001,15281,0.087,551
2019-12-18T08:30:10,42.805,6.029,CST-1368DR,7137,10002,15282,0.086,551
2019-12-18T08:33:12,42.805,6.029,CST-1368DR,7137,10000,15279,0.087,551
2019-12-18T08:36:13,42.805,6.029,CST-1368DR,7137,10002,15283,0.086,551
2019-12-18T08:39:15,42.805,6.029,CST-1368DR,7137,10001,15281,0.087,551
2019-12-18T08:42:17,42.805,6.029,CST-1368DR,7136,9999,15280,0.087,551
2019-12-18T08:45:18,42.805,6.029,CST-1368DR,7137,10002,15282,0.086,551
2019-12-18T08:48:20,42.805,6.029,CST-1368DR,7137,10001,15281,0.087,551
2019-12-18T08:51:21,42.805,6.029,CST-1368DR,7137,10002,15283,0.086,551
2019-12-18T08:54:23,42.805,6.029,CST-1368DR,7137,10001,15280,0.087,551
2019-12-18T08:57:25,42.805,6.029,CST-1368DR,7136,10002,15285,0.086,551
2019-12-18T09:00:26,42.805,6.029,CST-1368DR,7136,9998,15279,0.087,551
2019-12-18T09:03:28,42.805,6.029,CST-1368DR,7136,10002,15284,0.086,551
2019-12-18T09:06:30,42.805,6.029,CST-1368DR,7136,10002,15284,0.086,551
2019-12-18T09:09:31,42.805,6.029,CST-1368DR,7136,10001,15282,0.086,551
2019-12-18T09:12:33,42.805,6.029,CST-1368DR,7137,10002,15282,0.086,551
2019-12-18T09:15:34,42.805,6.029,CST-1368DR,7136,10002,15284,0.086,550
2019-12-18T09:18:36,42.805,6.029,CST-1368DR,7136,10002,15284,0.086,551
2019-12-18T09:21:38,42.805,6.029,CST-1368DR,7137,10002,15282,0.086,551
2019-12-18T09:24:39,42.805,6.029,CST-1368DR,7136,10003,15285,0.086,551
2019-12-18T09:27:41,42.805,6.029,CST-1368DR,7136,10001,15283,0.086,551
2019-12-18T09:30:43,42.805,6.029,CST-1368DR,7136,10000,15282,0.086,551
2019-12-18T09:33:44,42.805,6.029,CST-1368DR,7137,10002,15282,0.086,551
2019-12-18T09:36:46,42.805,6.029,CST-1368DR,7136,9999,15280,0.087,551
2019-12-18T09:39:48,42.805,6.029,CST-1368DR,7136,10002,15284,0.086,551
2019-12-18T09:42:49,42.805,6.029,CST-1368DR,7136,10002,15284,0.086,551
2019-12-18T09:45:51,42.805,6.029,CST-1368DR,7136,10002,15284,0.086,551
2019-12-18T09:48:53,42.805,6.029,CST-1368DR,7136,10001,15283,0.086,551
2019-12-18T09:51:54,42.805,6.029,CST-1368DR,7136,10002,15284,0.086,551
2019-12-18T09:54:56,42.805,6.029,CST-1368DR,7136,10002,15284,0.086,551
2019-12-18T09:57:57,42.805,6.029,CST-1368DR,7136,10001,15282,0.086,551
2019-12-18T10:00:59,42.805,6.029,CST-1368DR,7136,10002,15285,0.086,551
2019-12-18T10:04:01,42.805,6.029,CST-1368DR,7136,10001,15282,0.086,551
2019-12-18T10:07:02,42.805,6.029,CST-1368DR,7136,10001,15283,0.086,551
2019-12-18T10:10:04,42.805,6.029,CST-1368DR,7136,10001,15283,0.086,551
2019-12-18T10:13:06,42.805,6.029,CST-1368DR,7136,10002,15284,0.086,551
2019-12-18T10:16:07,42.805,6.029,CST-1368DR,7136,10002,15284,0.086,551
2019-12-18T10:19:09,42.805,6.029,CST-1368DR,7136,10003,15285,0.086,551
2019-12-18T10:22:11,42.805,6.029,CST-1368DR,7136,10000,15282,0.086,551
2019-12-18T10:25:12,42.805,6.029,CST-1368DR,7136,10000,15282,0.086,551
2019-12-18T10:28:14,42.805,6.029,CST-1368DR,7136,9998,15279,0.087,551
2019-12-18T10:31:16,42.805,6.029,CST-1368DR,7136,10000,15281,0.087,551
2019-12-18T10:34:17,42.805,6.029,CST-1368DR,7136,10001,15283,0.086,551
2019-12-18T10:37:19,42.805,6.029,CST-1368DR,7136,10001,15282,0.086,551
2019-12-18T10:40:21,42.805,6.029,CST-1368DR,7136,10002,15284,0.086,551
2019-12-18T10:43:23,42.805,6.029,CST-1368DR,7136,10000,15282,0.086,551
2019-12-18T10:46:24,42.805,6.029,CST-1368DR,7136,9999,15279,0.087,551
2019-12-18T10:49:26,42.805,6.029,CST-1368DR,7136,9998,15278,0.088,551
2019-12-18T10:52:28,42.805,6.029,CST-1368DR,7136,10001,15283,0.086,551
2019-12-18T10:55:29,42.805,6.029,CST-1368DR,7136,10001,15282,0.086,551
2019-12-18T10:58:31,42.805,6.029,CST-1368DR,7136,10001,15282,0.086,551
2019-12-18T11:01:32,42.805,6.029,CST-1368DR,7136,10001,15282,0.086,551
2019-12-18T11:04:34,42.805,6.029,CST-1368DR,7136,10001,15282,0.086,551
2019-12-18T11:07:36,42.805,6.029,CST-1368DR,7136,10001,15282,0.086,550
2019-12-18T11:10:37,42.805,6.029,CST-1368DR,7136,10001,15283,0.086,551
2019-12-18T11:13:39,42.805,6.029,CST-1368DR,7136,10001,15283,0.086,551
2019-12-18T11:16:41,42.805,6.029,CST-1368DR,7136,10002,15284,0.086,551
2019-12-18T11:19:42,42.805,6.029,CST-1368DR,7136,10001,15283,0.086,551
2019-12-18T11:22:44,42.805,6.029,CST-1368DR,7136,10001,15282,0.086,551
2019-12-18T11:25:45,42.805,6.029,CST-1368DR,7136,10001,15282,0.086,551
2019-12-18T11:28:47,42.805,6.029,CST-1368DR,7136,9999,15279,0.087,551
2019-12-18T11:31:49,42.805,6.029,CST-1368DR,7136,10001,15282,0.086,551
2019-12-18T11:34:50,42.805,6.029,CST-1368DR,7136,10000,15281,0.087,551
2019-12-18T11:37:52,42.805,6.029,CST-1368DR,7136,9999,15280,0.087,551
2019-12-18T11:40:54,42.805,6.029,CST-1368DR,7136,10000,15281,0.087,551
2019-12-18T11:43:55,42.805,6.029,CST-1368DR,7136,10000,15282,0.086,551
2019-12-18T11:46:57,42.805,6.029,CST-1368DR,7136,10000,15281,0.087,551
2019-12-18T11:49:58,42.805,6.029,CST-1368DR,7136,10001,15283,0.086,551
2019-12-18T11:53:00,42.805,6.029,CST-1368DR,7136,10001,15282,0.086,551
2019-12-18T11:56:02,42.805,6.029,CST-1368DR,7136,10000,15281,0.087,551
2019-12-18T11:59:03,42.805,6.029,CST-1368DR,7136,10001,15282,0.086,551
2019-12-18T12:02:05,42.805,6.029,CST-1368DR,7136,10001,15283,0.086,551
2019-12-18T12:05:07,42.805,6.029,CST-1368DR,7136,10001,15282,0.086,551
2019-12-18T12:08:08,42.805,6.029,CST-1368DR,7136,10000,15281,0.087,551
2019-12-18T12:11:10,42.805,6.029,CST-1368DR,7136,10001,15283,0.086,551
2019-12-18T12:14:12,42.805,6.029,CST-1368DR,7136,10001,15283,0.086,551
2019-12-18T12:17:13,42.805,6.029,CST-1368DR,7136,10001,15282,0.086,551
2019-12-18T12:20:15,42.805,6.029,CST-1368DR,7136,10001,15282,0.086,550
2019-12-18T12:23:16,42.805,6.029,CST-1368DR,7136,9992,15269,0.090,550
2019-12-18T12:26:18,42.805,6.029,CST-1368DR,7136,10000,15282,0.086,551
2019-12-18T12:29:20,42.805,6.029,CST-1368DR,7136,9999,15280,0.087,551
2019-12-18T12:32:22,42.805,6.029,CST-1368DR,7136,10001,15283,0.086,551
2019-12-18T12:35:23,42.805,6.029,CST-1368DR,7136,9998,15278,0.088,551
2019-12-18T12:38:25,42.805,6.029,CST-1368DR,7136,10000,15281,0.087,551
2019-12-18T12:41:27,42.805,6.029,CST-1368DR,7136,9999,15279,0.087,551
2019-12-18T12:44:28,42.805,6.029,CST-1368DR,7136,9999,15280,0.087,551
2019-12-18T12:47:30,42.805,6.029,CST-1368DR,7136,9998,15278,0.088,551
2019-12-18T12:50:32,42.805,6.029,CST-1368DR,7135,10000,15284,0.086,551
2019-12-18T12:53:33,42.805,6.029,CST-1368DR,7136,10000,15282,0.086,550
2019-12-18T12:56:35,42.805,6.029,CST-1368DR,7135,10001,15284,0.086,551
2019-12-18T12:59:37,42.805,6.029,CST-1368DR,7136,10000,15281,0.087,551
2019-12-18T13:02:38,42.805,6.029,CST-1368DR,7136,10000,15281,0.087,551
2019-12-18T13:05:40,42.805,6.029,CST-1368DR,7136,9998,15278,0.088,551
2019-12-18T13:08:41,42.805,6.029,CST-1368DR,7135,9999,15282,0.086,551
2019-12-18T13:11:43,42.805,6.029,CST-1368DR,7135,9999,15282,0.086,551
2019-12-18T13:14:45,42.805,6.029,CST-1368DR,7135,10000,15283,0.086,551
2019-12-18T13:17:46,42.805,6.029,CST-1368DR,7135,10000,15283,0.086,551
2019-12-18T13:20:48,42.805,6.029,CST-1368DR,7135,9999,15282,0.086,551
2019-12-18T13:23:50,42.805,6.029,CST-1368DR,7135,10001,15284,0.086,551
2019-12-18T13:26:51,42.805,6.029,CST-1368DR,7135,10000,15283,0.086,551
2019-12-18T13:29:54,42.805,6.029,CST-1368DR,7135,9998,15281,0.087,551
2019-12-18T13:32:56,42.805,6.029,CST-1368DR,7135,10000,15284,0.086,551
2019-12-18T13:35:57,42.805,6.029,CST-1368DR,7135,10000,15283,0.086,551
2019-12-18T13:38:59,42.805,6.029,CST-1368DR,7135,10000,15283,0.086,551
2019-12-18T13:42:01,42.805,6.029,CST-1368DR,7135,9998,15281,0.087,551
2019-12-18T13:45:02,42.805,6.029,CST-1368DR,7135,9999,15282,0.086,551
2019-12-18T13:48:04,42.805,6.029,CST-1368DR,7135,10000,15283,0.086,551
2019-12-18T13:51:05,42.805,6.029,CST-1368DR,7135,9990,15267,0.090,551
2019-12-18T13:54:07,42.805,6.029,CST-1368DR,7135,9994,15274,0.089,551
2019-12-18T13:57:09,42.805,6.029,CST-1368DR,7135,9998,15281,0.087,551
2019-12-18T14:00:10,42.805,6.029,CST-1368DR,7135,9997,15279,0.087,551
2019-12-18T14:03:12,42.805,6.029,CST-1368DR,7135,9997,15278,0.088,551
2019-12-18T14:06:14,42.805,6.029,CST-1368DR,7135,9999,15282,0.086,551
2019-12-18T14:09:15,42.805,6.029,CST-1368DR,7135,9999,15282,0.086,551
2019-12-18T14:12:17,42.805,6.029,CST-1368DR,7135,9998,15281,0.087,551
2019-12-18T14:15:19,42.805,6.029,CST-1368DR,7135,9999,15282,0.086,551
2019-12-18T14:18:20,42.805,6.029,CST-1368DR,7135,9999,15282,0.086,551
2019-12-18T14:21:22,42.805,6.029,CST-1368DR,7135,9999,15281,0.087,551
2019-12-18T14:24:23,42.805,6.029,CST-1368DR,7135,9999,15282,0.086,551
2019-12-18T14:27:25,42.805,6.029,CST-1368DR,7135,9999,15282,0.086,551
2019-12-18T14:30:27,42.805,6.029,CST-1368DR,7135,9999,15282,0.086,551
2019-12-18T14:33:28,42.805,6.029,CST-1368DR,7135,10000,15283,0.086,551
2019-12-18T14:36:30,42.805,6.029,CST-1368DR,7135,9999,15281,0.087,551
2019-12-18T14:39:32,42.805,6.029,CST-1368DR,7135,9999,15282,0.086,551
2019-12-18T14:42:33,42.805,6.029,CST-1368DR,7135,10000,15283,0.086,551
2019-12-18T14:45:35,42.805,6.029,CST-1368DR,7135,9999,15282,0.086,551
2019-12-18T14:48:36,42.805,6.029,CST-1368DR,7135,9999,15281,0.087,551
2019-12-18T14:51:38,42.805,6.029,CST-1368DR,7135,9997,15279,0.087,551
2019-12-18T14:54:40,42.805,6.029,CST-1368DR,7135,9999,15281,0.087,551
2019-12-18T14:57:41,42.805,6.029,CST-1368DR,7135,9998,15281,0.087,551
2019-12-18T15:00:43,42.805,6.029,CST-1368DR,7135,9999,15281,0.087,551
2019-12-18T15:03:45,42.805,6.029,CST-1368DR,7135,9999,15281,0.087,551
2019-12-18T15:06:46,42.805,6.029,CST-1368DR,7135,9998,15280,0.087,551
2019-12-18T15:09:48,42.805,6.029,CST-1368DR,7135,9997,15278,0.088,551
2019-12-18T15:12:49,42.805,6.029,CST-1368DR,7135,9997,15278,0.088,551
2019-12-18T15:15:51,42.805,6.029,CST-1368DR,7135,9999,15281,0.087,551
2019-12-18T15:18:53,42.805,6.029,CST-1368DR,7135,9998,15279,0.087,551
2019-12-18T15:21:54,42.805,6.029,CST-1368DR,7135,9998,15280,0.087,551
2019-12-18T15:24:56,42.805,6.029,CST-1368DR,7135,9985,15261,0.092,550
2019-12-18T15:27:58,42.805,6.029,CST-1368DR,7135,9999,15281,0.087,551
2019-12-18T15:30:59,42.805,6.029,CST-1368DR,7135,9999,15281,0.087,551
2019-12-18T15:34:01,42.805,6.029,CST-1368DR,7135,9995,15276,0.088,551
2019-12-18T15:37:02,42.805,6.029,CST-1368DR,7135,9997,15279,0.087,551
2019-12-18T15:40:04,42.805,6.029,CST-1368DR,7135,9996,15276,0.088,551
2019-12-18T15:43:06,42.805,6.029,CST-1368DR,7135,9998,15281,0.087,551
2019-12-18T15:46:07,42.805,6.029,CST-1368DR,7135,9998,15279,0.087,551
2019-12-18T15:49:09,42.805,6.029,CST-1368DR,7135,9997,15279,0.087,551
2019-12-18T15:52:11,42.805,6.029,CST-1368DR,7135,9998,15280,0.087,551
2019-12-18T15:55:13,42.805,6.029,CST-1368DR,7135,9998,15280,0.087,551
2019-12-18T15:58:14,42.805,6.029,CST-1368DR,7135,9998,15281,0.087,551
2019-12-18T16:01:16,42.805,6.029,CST-1368DR,7135,9999,15282,0.086,551
2019-12-18T16:04:18,42.805,6.029,CST-1368DR,7135,9999,15282,0.086,551
2019-12-18T16:07:19,42.805,6.029,CST-1368DR,7135,9999,15281,0.087,550
2019-12-18T16:10:21,42.805,6.029,CST-1368DR,7135,9998,15280,0.087,551
2019-12-18T16:13:23,42.805,6.029,CST-1368DR,7135,9995,15276,0.088,551
2019-12-18T16:16:24,42.805,6.029,CST-1368DR,7135,9998,15280,0.087,551
2019-12-18T16:19:26,42.805,6.029,CST-1368DR,7135,9999,15281,0.087,550
2019-12-18T16:22:27,42.805,6.029,CST-1368DR,7135,9999,15282,0.086,551
2019-12-18T16:25:29,42.805,6.029,CST-1368DR,7135,9999,15281,0.087,551
2019-12-18T16:28:31,42.805,6.029,CST-1368DR,7135,9996,15278,0.088,550
2019-12-18T16:31:32,42.805,6.029,CST-1368DR,7135,9999,15282,0.086,551
2019-12-18T16:34:34,42.805,6.029,CST-1368DR,7135,9998,15280,0.087,550
2019-12-18T16:37:36,42.805,6.029,CST-1368DR,7134,9998,15283,0.086,551
2019-12-18T16:40:37,42.805,6.029,CST-1368DR,7135,9999,15281,0.087,551
2019-12-18T16:43:39,42.805,6.029,CST-1368DR,7135,9999,15282,0.086,551